www.pogodaiklimat.ru
ПОГОДА в Мюнстере

Архив погоды в Мюнстере (Германия)

Время
(UTC), дата
01 20.05
02 20.05
03 20.05
04 20.05
05 20.05
06 20.05
07 20.05
08 20.05
09 20.05
10 20.05
11 20.05
12 20.05
13 20.05
14 20.05
15 20.05
16 20.05
17 20.05
18 20.05
19 20.05
20 20.05
21 20.05
22 20.05
23 20.05
00 21.05
01 21.05
02 21.05
03 21.05
04 21.05
05 21.05
06 21.05
07 21.05
08 21.05
09 21.05
10 21.05
11 21.05
12 21.05
13 21.05
14 21.05
15 21.05
16 21.05
17 21.05
18 21.05
19 21.05
20 21.05
21 21.05
22 21.05
23 21.05
00 22.05
01 22.05
02 22.05
03 22.05
04 22.05
05 22.05
06 22.05
07 22.05
08 22.05
09 22.05
10 22.05
11 22.05
12 22.05
13 22.05
14 22.05
15 22.05
16 22.05
17 22.05
18 22.05
19 22.05
20 22.05
21 22.05
22 22.05
23 22.05
00 23.05
01 23.05
02 23.05
03 23.05
04 23.05
05 23.05
06 23.05
07 23.05
08 23.05
09 23.05
10 23.05
11 23.05
12 23.05
13 23.05
14 23.05
15 23.05
16 23.05
17 23.05
18 23.05
19 23.05
20 23.05
21 23.05
22 23.05
23 23.05
00 24.05
01 24.05
02 24.05
03 24.05
04 24.05
05 24.05
06 24.05
07 24.05
08 24.05
09 24.05
10 24.05
11 24.05
12 24.05
13 24.05
14 24.05
15 24.05
16 24.05
17 24.05
18 24.05
19 24.05
20 24.05
21 24.05
22 24.05
23 24.05
00 25.05
01 25.05
02 25.05
03 25.05
04 25.05
05 25.05
06 25.05
07 25.05
08 25.05
09 25.05
10 25.05
11 25.05
12 25.05
13 25.05
14 25.05
15 25.05
16 25.05
17 25.05
18 25.05
19 25.05
20 25.05
21 25.05
22 25.05
23 25.05
00 26.05
01 26.05
02 26.05
03 26.05
04 26.05
05 26.05
06 26.05
07 26.05
08 26.05
09 26.05
10 26.05
11 26.05
12 26.05
13 26.05
14 26.05
15 26.05
16 26.05
17 26.05
18 26.05
19 26.05
20 26.05
21 26.05
22 26.05
23 26.05
00 27.05
Ветер
(напр.,м/с)
Видим. Явления Облачность Т
(С)
Тd
(С)
f
(%)
Тe
(С)
Тes
(С)
Комфортность P
(гПа)
Po
(гПа)
Тmin
(С)
Tmax
(С)
R
(мм)
R24
(мм)
S
(см)
З 2-3
{3}
12 км 3/0
[Ci fib]
+12.5 +11.7 95 +11 +11 1021.9 1015.5
З 2-2
{3}
1000 м туман на расстоянии 5/3 360 м
[Sc Ci fib]
+11.1 +10.4 95 +10 +10 1022.0 1015.6
СЗ 2 8000 м 9/9 400 м
[Cu hum]
+12.4 +11.6 95 +11 +11 1021.6 1015.2
З 1 8000 м 9/9 240 м
[Cu Sc]
+12.7 +10.9 89 +13 +13 1021.9 1015.5
Ю 1 9000 м 9/9 240 м
[Cu Sc]
+12.9 +10.8 87 +13 +13 1022.3 1015.9
ЮВ 1 15 км 9/3 300 м
[Cu med, cong Ac trans Ci sp]
+14.0 +10.2 78 +14 +16 1022.4 1016.0 +10.7 +18.6
СВ 1 30 км 8/1 450 м
[Cu hum Ac trans Ci sp]
+15.2 +10.4 73 +16 +19 1021.5 1015.2
С 1-3
{3}
40 км 8/0
[Ci sp]
+17.0 +10.2 64 +18 +27 1021.0 1014.7
Ю 2 40 км 8/0
[Ac trans Ci sp]
+18.1 +11.2 64 +19 +27 1020.2 1014.0
В 2 45 км 9/0
[Ac trans Ci sp]
+19.7 +10.4 55 +22 +33 комфорт 1019.4 1013.2
ЮВ 2 45 км 9/1 1000 м
[Cu med, cong Ac trans Ci sp]
+20.6 +11.0 54 +23 +31 комфорт 1018.3 1012.1
ЮВ 3 45 км 6/0
[Ac cast Ci sp]
+21.2 +10.9 52 +23 +33 комфорт 1016.7 1010.5
В 3 45 км 8/3 1500 м
[Sc Ac cast Ci sp]
+23.0 +12.7 52 +26 +31 жарко 1014.9 1008.8
В 2 35 км слаб. ливневой дождь 9/4 900 м
[Cb cap Ac cuf Ci ing]
+21.1 +13.8 63 +24 +28 комфорт 1013.7 1007.6
В 2 12 км гроза, ливневой дождь 9/8 1380 м
[Cb cap Ac cuf Ci ing]
+17.9 +16.3 90 +18 +20 1012.5 1006.3 3
Ю 4 9000 м в посл. час гроза {ливн. дождь} 9/8 570 м
[Cu Sc Ac cuf]
+18.7 +17.4 92 +20 +20 1011.9 1005.7
Ю 6 30 км в посл. час ливневой дождь 9/6 700 м
[Cu Sc Ac trans Ci fib]
+20.6 +17.3 81 +24 +24 комфорт 1010.6 1004.5
ЮЗ 12 35 км {гроза, ливн. дождь} 6/6 300 м
[Cu med, cong]
+19.5 +14.4 72 +20 +20 1011.1 1004.9 +13.7 +23.1 0.2
З 7 25 км в посл. час дождь 9/9 270 м
[Cu Sc]
+14.6 +12.0 84 +13 +13 1013.7 1007.4
З 6 30 км 9/9 420 м
[Cu Sc]
+13.9 +11.1 83 +12 +12 1015.2 1008.9
З 6 40 км в посл. час дождь 10/9 480 м
[Cu Sc]
+14.1 +10.9 81 +12 +12 1016.0 1009.7 0.0
З 7 9000 м ливневой дождь 10/9 240 м
[Cu Sc]
+12.5 +11.1 91 +10 +10 1017.5 1011.1
З 8 40 км в посл. час ливневой дождь 10/9 400 м
[Cu Sc]
+12.4 +10.3 87 +9 +9 1018.5 1012.1
З 6 40 км {ливн. дождь, дождь} 9/9 300 м
[Cu Sc]
+12.1 +9.4 84 +9 +9 1018.7 1012.3 0.7
ЮЗ 4 35 км 5/5 540 м
[Cu Sc]
+11.6 +8.9 83 +9 +9 1019.0 1012.6
ЮЗ 4-6
{7}
25 км 8/8 480 м
[Cu hum]
+12.1 +9.1 82 +10 +10 1018.9 1012.5
ЮЗ 5 18 км 9/9 420 м
[Cu Sc]
+12.0 +9.1 82 +10 +10 1018.6 1012.2
ЮЗ 5-8
{8}
18 км 10/9 420 м
[Sc]
+12.1 +9.1 82 +10 +10 1018.6 1012.2
ЮЗ 6-8
{8}
16 км 10/9 420 м
[Cu Sc]
+12.5 +9.5 82 +10 +10 1018.7 1012.3
ЮЗ 6 20 км 9/9 300 м
[Cu Sc]
+13.2 +9.9 80 +11 +11 1018.9 1012.6 +11.5 +19.5 0.7
ЮЗ 7 20 км 9/9 420 м
[Cu Sc]
+13.8 +9.8 77 +11 +12 1019.1 1012.8
З 8 25 км 8/8 450 м
[Cu Sc]
+15.0 +9.6 70 +13 +13 1019.5 1013.2
З 7 25 км в посл. час ливневой дождь 9/6 500 м
[Cu Sc Ac lent Ci fib]
+15.2 +10.1 72 +13 +14 1019.8 1013.5 0.0
З 6 30 км слаб. ливневой дождь 9/6 570 м
[Cu Sc Ci fib]
+15.8 +10.0 68 +14 +16 1020.1 1013.8
З 7 35 км в посл. час ливневой дождь 8/6 840 м
[Cu Sc Ci fib]
+17.1 +8.5 57 +16 +18 1020.2 1013.9
ЮЗ 8 40 км {ливн. дождь} 9/5 1000 м
[Cu Sc Cs]
+16.6 +8.1 57 +15 +16 1020.4 1014.1 0.0
З 6 40 км 9/8 1050 м
[Cu Sc Cs]
+16.8 +8.7 59 +16 +17 1020.6 1014.3
З 8 40 км 9/5 1110 м
[Cu Sc Ac lent Ci fib]
+18.4 +8.6 53 +18 +19 1020.7 1014.4
З 6 40 км 8/5 1110 м
[Cu Sc Ac lent Ci fib]
+18.1 +8.5 53 +18 +19 1020.4 1014.1
З 6 40 км 9/3 1110 м
[Cu Sc Ac lent Ci fib]
+18.2 +8.5 53 +18 +19 1020.1 1013.8
З 5 40 км 9/3 1350 м
[Cu med, cong Ac trans]
+17.9 +7.5 51 +18 +18 1019.8 1013.5
З 3 40 км 9/1 1000 м
[Cu med, cong Ac As]
+17.3 +7.9 54 +17 +18 1019.8 1013.5 +13.2 +19.5
СЗ 4 40 км 9/1 1200 м
[Sc diur, vesp Ac trans Ci fib]
+16.1 +8.3 60 +15 +15 1019.9 1013.6
СЗ 2 40 км 8/1 1500 м
[Sc diur, vesp Ac trans Ci fib]
+14.9 +8.4 65 +15 +15 1020.3 1014.0
СЗ 2 40 км 8/0
[Ac trans Ci fib]
+13.3 +8.4 72 +13 +13 1020.4 1014.0
СЗ 1 40 км 4/0
[Ac trans Ci fib]
+11.1 +8.2 82 +11 +11 1020.3 1013.9
штиль 0-1
{2}
40 км 3/0
[Ac trans Ci fib]
+9.0 +7.8 92 +8 +8 1020.1 1013.6
штиль 0 35 км местами туман поземный 8/0
[Ci fib]
+8.3 +7.6 95 +7 +7 1019.7 1013.2
ЮЗ 1-1
{1}
30 км местами туман поземный 8/0
[Ci sp]
+8.0 +7.3 95 +7 +7 1019.5 1013.0
штиль 0-1
{1}
25 км местами туман поземный 3/0
[Ci fib]
+7.1 +6.6 97 +6 +6 1019.1 1012.6
В 1 200 м туман местами 1/0
[Ci fib]
+6.0 +5.9 99 +5 +5 1019.0 1012.5
ЮВ 1-1
{1}
900 м туман местами 3/1 30 м
[St Ci fib]
+5.7 +5.4 98 +4 +4 1018.7 1012.2
штиль 0 15 км 6/0
[Ac trans Ci fib]
+7.7 +7.1 96 +7 +8 1018.9 1012.4
ЮВ 1 20 км {туман} 6/0
[Ci fib]
+12.1 +8.9 81 +12 +15 1018.6 1012.2 +5.5 +17.3
Ю 1 20 км 5/1 720 м
[Cu hum Ci fib]
+14.3 +8.9 70 +15 +20 1018.3 1012.0
Ю 1-2
{2}
35 км 3/1 960 м
[Cu med, cong Ci fib]
+15.5 +7.8 60 +16 +25 1018.3 1012.0
СЗ 2 35 км 4/3 900 м
[Cu med, cong Ci fib]
+16.9 +8.1 56 +17 +26 1017.9 1011.6
ЮЗ 2 35 км 6/3 960 м
[Cu med, cong Ci fib]
+17.6 +7.4 51 +18 +28 1017.4 1011.2
СЗ 2 35 км 9/4 1200 м
[Cu med, cong Ci fib]
+17.4 +7.8 53 +18 +26 1017.0 1010.7
С 2 35 км 8/3 1320 м
[Cu med, cong Ci fib]
+18.8 +6.9 46 +20 +29 1016.3 1010.1
СВ 2 35 км 9/3 1440 м
[Cu med, cong Ci fib]
+18.4 +6.7 46 +19 +28 1015.7 1009.5
ЮВ 1 35 км 9/3 1440 м
[Cu med, cong Ci fib]
+19.1 +7.5 47 +21 +29 комфорт 1015.3 1009.1
ЮВ 2 35 км 9/3 1500 м
[Cu med, cong Ci fib]
+20.1 +7.4 44 +22 +27 комфорт 1014.5 1008.3
В 2 35 км 9/1 1500 м
[Sc Ci fib]
+20.2 +7.7 44 +22 +26 комфорт 1013.9 1007.7
В 2-4
{5}
35 км 9/0
[Ci fib]
+19.6 +7.2 45 +21 +23 комфорт 1013.0 1006.8
В 2 45 км 9/0
[Ac trans Ci sp]
+19.1 +7.9 48 +20 +21 1013.1 1006.9 +11.9 +20.7
СВ 2 50 км 9/0
[Ac trans Ci sp]
+17.6 +8.0 53 +18 +18 1012.6 1006.4
В 2 50 км 9/0
[Ac trans Ci fib]
+16.2 +8.1 59 +16 +16 1012.1 1005.9
В 2 50 км 9/0
[Ci fib]
+15.4 +7.8 60 +15 +15 1011.8 1005.5
СВ 2-4
{4}
50 км 9/0
[Ci fib]
+14.6 +7.7 63 +14 +14 1011.3 1005.0
В 2-3
{5}
50 км 9/0
[Ci fib]
+14.2 +7.8 65 +14 +14 1011.0 1004.7
В 1 50 км 9/0
[Ci fib]
+14.0 +8.1 68 +14 +14 1010.3 1004.0
В 2 50 км в посл. час дождь 9/3 2000 м
[Sc Ac As Ci fib]
+14.8 +7.9 63 +15 +15 1009.3 1003.0
В 2-5
{5}
50 км 9/0
[Ac As Ci fib]
+14.7 +8.0 64 +14 +14 1008.6 1002.3
В 2 45 км слаб. дождь 9/4 2000 м
[Sc Ac As]
+14.3 +8.6 69 +14 +14 1008.5 1002.2 0.0
В 2 45 км слаб. дождь 9/4 2000 м
[Sc Ac As Ci sp]
+14.1 +9.0 71 +14 +14 1007.4 1001.1
В 2-4
{6}
45 км в посл. час дождь 9/0
[Ac trans Ci sp]
+14.4 +9.3 71 +14 +15 1006.5 1000.3
В 3 35 км {дождь} 9/0
[Ac As Ci sp]
+15.0 +9.9 72 +14 +15 1006.1 999.9 +13.7 +19.0 0.0
В 3 35 км 9/0
[Ac As Ci sp]
+16.2 +10.1 67 +16 +18 1005.2 999.0
В 4 35 км 9/0
[Ac trans Ci sp]
+18.6 +10.9 61 +19 +23 1004.7 998.6
В 3 35 км 9/0
[Ac trans Ci sp]
+20.2 +11.0 55 +22 +29 комфорт 1003.9 997.8
В 4 35 км 9/0
[Ac As Ci sp]
+22.3 +11.9 52 +25 +32 комфорт 1002.9 996.8
ЮВ 5-8
{8}
35 км 9/0
[Ac As Ci sp]
+22.1 +11.5 51 +24 +29 комфорт 1002.1 996.0
ЮВ 5-8
{9}
35 км 9/0
[Ac lent Ci sp]
+24.5 +12.5 47 +26 +31 жарко 1001.0 995.0
ЮВ 4-7
{9}
35 км 9/0
[Ac lent Ci sp]
+24.6 +12.8 48 +27 +32 жарко 999.9 993.9
ЮВ 4-6
{7}
35 км 9/0
[Ac lent Ci sp]
+25.3 +12.3 44 +27 +30 жарко 999.0 993.0
ЮВ 5 35 км 9/0
[Ac lent Ci sp]
+25.1 +12.7 46 +27 +29 жарко 997.9 991.9
ЮВ 3 30 км 9/4 1500 м
[Cu med, cong Ac As]
+23.6 +13.8 54 +26 +27 жарко 997.1 991.1
Ю 4-6
{9}
30 км слаб. ливневой дождь 9/4 1500 м
[Cb cap Ac As]
+22.3 +14.5 61 +26 +26 жарко 996.6 990.6
Ю 3 6000 м ливневой дождь, в посл. час гроза 10/10 1000 м
[Cb cap]
+18.6 +17.3 92 +20 +20 997.4 991.3 +15.0 +25.8 2
В 2 10 км в посл. час гроза {ливн. дождь} 9/6 120 м
[Cu Sc Ac As]
+17.8 +17.2 96 +18 +18 996.4 990.3
ЮВ 3 15 км 9/9 1200 м
[Cu Sc]
+17.5 +16.9 96 +17 +17 996.6 990.5
Ю 4 15 км слаб. ливневой дождь {гроза} 9/9 270 м
[Cb cap]
+17.8 +16.9 94 +18 +18 996.9 990.8 4
З 10 8000 м слаб. ливневой дождь 9/9 270 м
[Cb cap]
+15.5 +14.2 92 +13 +13 998.4 992.2
З 8 15 км в посл. час ливневой дождь 9/9 300 м
[Cu Sc]
+14.7 +12.9 89 +12 +12 1000.0 993.8
ЮЗ 7 25 км {гроза, ливн. дождь} 9/9 400 м
[Cu Sc]
+14.2 +11.9 86 +12 +12 1000.9 994.7 0.1
ЮЗ 4 25 км 9/9 480 м
[Cu Sc]
+14.0 +11.4 84 +13 +13 1001.0 994.8
ЮЗ 3 8000 м слаб. дождь 9/9 420 м
[Sc]
+13.8 +12.1 89 +13 +13 1000.9 994.7
Ю 3 9000 м слаб. дождь 9/9 420 м
[Sc]
+13.7 +12.4 92 +12 +12 1001.1 994.9 0.0
Ю 3 8000 м в посл. час дождь 9/9 630 м
[Cu Sc]
+13.9 +12.4 91 +13 +13 1001.1 994.9
ЮЗ 4 10 км 9/4 480 м
[Cu Sc Ac trans Ci sp]
+14.3 +11.7 84 +13 +13 1001.5 995.3
ЮЗ 6 10 км {дождь} 9/1 300 м
[Cu med, cong Ac trans Ci sp]
+13.9 +9.2 73 +12 +12 1001.9 995.7 +13.6 +18.6 0.0
ЮЗ 6 20 км слаб. дождь 10/8 540 м
[Cu Sc Ac As]
+13.5 +10.1 80 +11 +11 1003.2 997.0
Ю 4-6
{8}
12 км слаб. дождь 10/9 540 м
[Cu Sc As op]
+12.9 +10.7 86 +11 +11 1004.1 997.8
Ю 4 22 км в посл. час дождь 9/9 360 м
[Cu Sc Ac As]
+13.4 +10.5 83 +12 +13 1004.4 998.1 0.9
ЮЗ 5 40 км 9/9 800 м
[Sc diur, vesp]
+14.2 +9.2 72 +13 +13 1005.0 998.8
ЮЗ 7 40 км 9/9 800 м
[Cb calv]
+15.4 +8.5 63 +14 +14 1005.6 999.4
ЮЗ 9 40 км в посл. час ливневой дождь 8/8 840 м
[Cb calv]
+16.8 +8.1 56 +15 +16 1005.7 999.5 0.0
З 9 40 км 9/9 1140 м
[Cu Sc]
+16.8 +7.8 55 +15 +16 1006.5 1000.3
З 8-10
{12}
40 км 6/5 1140 м
[Cu Sc Ci fib]
+16.5 +8.2 58 +15 +16 1007.0 1000.8
З 6 40 км осадки на расстоянии 9/5 960 м
[Cb calv Ac cuf Ci fib]
+16.7 +7.6 55 +16 +17 1007.6 1001.4
Ю 4 25 км слаб. ливневой дождь 9/6 500 м
[Cb cap Ac cuf]
+12.9 +9.5 80 +11 +12 1008.7 1002.4
ЮЗ 4 25 км в посл. час ливневой дождь 8/5 900 м
[Cb cap Ac cuf Ci ing]
+13.9 +8.5 70 +13 +13 1009.1 1002.8
ЮЗ 3 35 км {ливн. дождь} 8/3 600 м
[Cb calv Ac trans Ci fib]
+14.8 +9.0 68 +14 +14 1009.3 1003.0 +12.7 +18.3 0.5
ЮВ 2 30 км 8/3 900 м
[Cu Sc Ac lent Ci fib]
+12.4 +10.4 88 +11 +11 1009.5 1003.2
Ю 2 30 км 8/1 900 м
[Cu Sc Ac trans Ci fib]
+11.9 +9.8 87 +11 +11 1010.2 1003.9
ЮВ 2 30 км 6/1 900 м
[Cu Sc Ci fib]
+10.2 +9.3 94 +9 +9 1011.0 1004.6
Ю 2-3
{3}
30 км 6/0
[Ci fib]
+10.5 +9.1 91 +9 +9 1011.2 1004.8
Ю 2-4
{4}
30 км 6/0
[Ci fib]
+11.0 +8.8 86 +10 +10 1012.0 1005.6
Ю 2 30 км 6/0
[Ci fib]
+10.3 +8.1 86 +9 +9 1012.3 1005.9
Ю 2-3
{3}
30 км 6/0
[Ci fib]
+9.2 +7.7 90 +7 +7 1012.6 1006.2
Ю 2 25 км 6/3 1200 м
[Sc Ci fib]
+8.8 +7.5 92 +7 +7 1012.9 1006.5
Ю 2 20 км местами туман поземный 3/0
[Ci fib]
+7.6 +7.2 97 +5 +5 1013.1 1006.7
ЮВ 2-3
{3}
20 км местами туман поземный 1/0
[Ac trans Ci fib]
+7.9 +7.4 97 +6 +6 1013.5 1007.1
Ю 2-4
{4}
20 км 1/0
[Ac lent Ci fib]
+10.0 +8.2 89 +8 +9 1013.9 1007.5
ЮЗ 3 25 км 1/0
[Ac lent Ci fib]
+12.0 +8.6 80 +10 +13 1014.0 1007.7 +6.9 +14.9
ЮЗ 4-5
{5}
30 км 1/1 420 м
[Cu hum]
+13.3 +9.0 75 +12 +15 1014.3 1008.0
ЮЗ 5-8
{8}
30 км 4/4 570 м
[Cu med, cong]
+14.7 +8.8 68 +13 +16 1014.7 1008.4
ЮЗ 5 35 км 4/3 840 м
[Cu med, cong Ac lent Ci fib]
+16.0 +7.7 58 +15 +19 1014.6 1008.3
ЮЗ 7 50 км 6/4 1140 м
[Cu med, cong Ac trans Ci fib]
+17.3 +6.8 50 +16 +18 1014.5 1008.3
ЮЗ 7 50 км 8/5 1300 м
[Cu med, cong Ac trans]
+18.2 +7.2 49 +18 +19 1014.6 1008.4
ЮЗ 6 60 км 8/4 1320 м
[Cu med, cong Ac cuf]
+18.4 +6.8 47 +18 +20 1014.4 1008.2
ЮЗ 7 60 км осадки на расстоянии 8/4 1440 м
[Cu med, cong Ac cuf]
+18.2 +6.5 46 +18 +19 1014.5 1008.3
ЮЗ 6 60 км в посл. час ливневой дождь 9/3 1440 м
[Cu med, cong Ac cuf]
+19.2 +7.0 45 +19 +21 1014.3 1008.1
З 5 60 км в посл. час дождь {ливн. дождь} 9/4 1500 м
[Cu med, cong Ac cuf]
+17.7 +6.8 49 +17 +18 1014.2 1008.0 0.0
З 5 70 км в посл. час дождь 9/4 1500 м
[Sc diur, vesp Ac As]
+18.2 +7.0 48 +18 +19 1014.3 1008.1
ЮЗ 7 60 км 9/1 1500 м
[Cu hum Ac As]
+18.5 +6.1 44 +18 +18 1014.6 1008.4
ЮЗ 5 50 км {ливн. дождь, дождь} 10/9 1500 м
[Cu Sc]
+17.7 +6.3 47 +17 +17 1014.8 1008.6 +12.0 +19.9 0.0
ЮЗ 6 50 км 10/6 1500 м
[Sc Ac As]
+17.3 +6.4 49 +17 +17 1014.9 1008.7
ЮЗ 5-7
{9}
50 км 10/9 1410 м
[Sc]
+16.6 +6.9 53 +16 +16 1015.6 1009.3
ЮЗ 6 45 км 10/9 1260 м
[Sc]
+16.3 +7.0 54 +15 +15 1015.9 1009.6
ЮЗ 9 45 км 10/10 1050 м
[Sc]
+15.7 +8.1 61 +14 +14 1016.1 1009.8
ЮЗ 5 45 км 10/10 720 м
[Sc]
+14.4 +9.4 72 +13 +13 1016.4 1010.1
ЮЗ 4 45 км 10/10 600 м
[Sc]
+14.7 +9.3 70 +14 +14 1016.5 1010.2
ЮЗ 6-8
{8}
45 км 10/10 630 м
[Sc]
+15.0 +9.8 71 +13 +13 1016.2 1009.9
ЮЗ 7-10
{10}
45 км в посл. час дождь 10/10 570 м
[Sc]
+14.9 +10.2 73 +13 +13 1016.3 1010.0
ЮЗ 6 40 км слаб. дождь 10/9 540 м
[Sc]
+14.8 +10.5 75 +13 +13 1016.7 1010.4 0.0
ЮЗ 6-8
{9}
30 км в посл. час дождь 10/10 480 м
[Sc]
+14.7 +11.0 78 +13 +13 1017.0 1010.7
ЮЗ 6 25 км 9/8 480 м
[Sc Ac trans]
+14.7 +11.3 80 +13 +13 1017.5 1011.2
З 6 25 км {дождь} 9/6 300 м
[Cu Sc Ac trans]
+15.1 +11.3 78 +13 +14 1018.2 1011.9 +14.4 +17.8 0.0
З 6 25 км 9/8 480 м
[Cu Sc Ac trans]
+16.0 +11.1 73 +15 +15 1018.6 1012.3
З 6 25 км 9/8 540 м
[Cu Sc Ac trans]
+16.5 +10.3 67 +15 +16 1019.2 1012.9
З 7 30 км 8/6 700 м
[Cu Sc Ac trans Ci fib]
+17.3 +9.6 61 +16 +17 1019.8 1013.5
З 7 30 км 8/6 800 м
[Cu Sc Ci fib]
+17.5 +9.8 61 +17 +18 1020.3 1014.0
З 7 30 км 9/4 960 м
[Cu Sc Ci]
+18.7 +9.7 56 +19 +21 1020.3 1014.1
ЮЗ 6 40 км 9/8 1020 м
[Cu Sc]
+18.1 +9.4 57 +18 +19 1020.5 1014.2
ЮЗ 8 40 км 9/8 1080 м
[Sc diur, vesp]
+18.9 +9.2 53 +19 +19 1019.8 1013.6
З 9 40 км 9/8 1140 м
[Cu Sc]
+19.9 +9.0 49 +20 +21 1019.7 1013.5
З 9 40 км 10/6 1200 м
[Cu Sc Ac As]
+20.2 +9.6 50 +21 +21 комфорт 1019.2 1013.0
З 9 30 км 10/9 1260 м
[Cu Sc]
+19.9 +9.7 52 +20 +20 1018.8 1012.6
ЮЗ 8 30 км 10/9 1080 м
[Cu Sc]
+19.3 +9.9 54 +20 +20 1018.7 1012.5
З 7 30 км 10/9 1000 м
[Cu Sc]
+18.8 +10.1 57 +19 +19 1018.4 1012.2 +15.2 +20.4
З 6 35 км в посл. час дождь 10/9 960 м
[Sc]
+18.1 +11.0 63 +18 +18 1018.3 1012.1
З 9 25 км в посл. час дождь 10/9 840 м
[Cu Sc]
+17.0 +11.3 69 +16 +16 1018.8 1012.5
ЮЗ 5 25 км слаб. дождь 10/9 720 м
[Cu Sc]
+16.9 +11.6 71 +16 +16 1018.8 1012.5 0.0
З 7 15 км слаб. дождь 10/9 540 м
[Sc]
+16.5 +12.5 77 +15 +15 1018.6 1012.3
ЮЗ 7 15 км дождь 10/9 500 м
[Sc]
+15.7 +12.1 79 +14 +14 1018.4 1012.1
ЮЗ 7 15 км слаб. дождь 10/9 300 м
[Sc]
+15.1 +12.1 82 +13 +13 1018.1 1011.8 0.0
Местоположение метеостанции Мюнстер (Германия): широта 52.13 долгота 7.70 высота над уровнем моря 48 м.
В архиве по умолчанию представлена погода в Мюнстере за последнюю неделю. Архивные данные за месяц целиком и за предыдущие месяцы, начиная с января 2011 года, Вы можете получить, выбрав интересующий диапазон дат из раскрывающегося списка и нажав кнопку "Найти!".
*Определитесь, кто Вы:
Внимание! Время в таблицах - всемирное. Для получения местного времени необходимо прибавить поправку, которая равна 1 ч.
Смотрите также архив погоды в соседних городах и на ближайших метеорологических станциях:
Партнеры нашего сайта:      
Пояснения к столбцам:
  • Ветер - указаны скорость ветра в м/с - средняя за 10 мин, порывы в срок и между сроками (в фигурных скобках) и направление, откуда дует ветер: С - северный,
  • СВ - северо-восточный, В - восточный, ЮВ - юго-восточный, Ю - южный, ЮЗ - юго-западный, З - западный, СЗ - северо-западный.
  • Видимость - горизонтальная дальность видимости в метрах или километрах. При видимости от 1 до 10 км при отсутствии осадков обычно наблюдается дымка, при ухудшении видимости до 1 км и менее - туман. В сухую погоду видимость может ухудшаться дымом, пылью или мглою.
  • Явления - указаны атмосферные явления, наблюдавшиеся в срок или в последний час перед сроком; фигурными скобками обозначены явления, наблюдавшиеся между сроками (за 1-3 часа до срока); квадратными скобками обозначены град или гололедные отложения с указанием их диаметра в мм.
  • Облачность - указаны через наклонную черту общая и нижняя облачность в баллах и высота нижней границы облаков в метрах; квадратными скобками обозначены формы облаков: Ci - перистые, Cs - перисто-слоистые, Cc - перисто-кучевые, Ac - высококучевые, As - высокослоистые, Sc - слоисто-кучевые, Ns - слоисто-дождевые, Cu - кучевые, Cb - кучево-дождевые. Подробнее классификацию облаков см. в Атласе облаков (PDF).
  • T - Температура воздуха - температура, измеренная на высоте 2 м над землей.
  • Td - Температура точки росы - температура, при понижении до которой содержащийся в воздухе водяной пар достигнет насыщения.
  • f - Относительная влажность воздуха - влажноcть воздуха, измеренная на высоте 2 м над землей.
  • Te - Эффективная температура - температура, которую ощущает одетый по сезону человек в тени. Характеристика душности погоды. При расчете учитывается влияние влажности воздуха и скорости ветра на теплоощущения человека.
  • Tes - Эффективная температура на солнце - температура, которую ощущает человек, с поправкой на солнечный нагрев. Характеристика знойности погоды. Зависит от высоты солнца над горизонтом, облачности и скорости ветра. Ночью, в пасмурную погоду, а также при ветре 12 м/с и более поправка равна нулю.
  • P - Атмосферное давление - приведенное к уровню моря атмосферное давление.
  • Po - Атмосферное давление - измеренное на уровне метеостанции атмосферное давление.
  • Tmin - Минимальная температура - минимум температуры воздуха на высоте 2 м над землей.
  • Tmax - Максимальная температура - максимум температуры воздуха на высоте 2 м над землей.
  • R - Количество осадков - Количество выпавших осадков за период времени, мм. При наведении курсора мыши на число - период времени, за который выпало указанное количество осадков.
  • R24 - Количество осадков - Количество выпавших осадков за 24 часа, мм.
  • S - Снежный покров - Высота снежного покрова, см. При наведении курсора мыши на число - состояние снежного покрова и степень покрытия местности в баллах.